Location: *
(58.7167°N, 26.1833°E)
Time: 06:32:25
(UTC+00:00)

Cosmos 1140 Rocket - Visible Passes

Search period start: 14 November 2019 00:00
Search period end: 24 November 2019 00:00
Orbit: 745 x 766 km, 74.1° (Epoch: 13 November)

Date Brightness Start Highest point End Pass type
(mag) Time Alt. Az. Time Alt. Az. Time Alt. Az.
14 Nov 6.3 00:24:50 12° NNE 00:24:50 12° NNE 00:25:19 10° NNE visible
14 Nov 5.6 02:04:51 16° N 02:04:51 16° N 02:07:19 10° NNE visible
14 Nov 5.6 03:44:51 10° NNW 03:47:59 16° NNE 03:51:07 10° NE visible
15 Nov 5.8 01:24:58 15° N 01:24:58 15° N 01:26:30 10° NNE visible
15 Nov 5.6 03:04:58 13° NNW 03:06:42 15° N 03:09:37 10° NE visible
15 Nov 5.2 04:46:18 10° NNW 04:50:25 23° NNE 04:54:32 10° E visible
16 Nov 6.2 00:45:05 13° NNE 00:45:05 13° NNE 00:45:46 10° NNE visible
16 Nov 5.6 02:25:06 15° N 02:25:24 15° N 02:28:18 10° NNE visible
16 Nov 5.5 04:05:34 10° NNW 04:09:16 19° NNE 04:12:58 10° ENE visible
17 Nov 5.8 01:45:13 15° N 01:45:13 15° N 01:47:14 10° NNE visible
17 Nov 5.6 03:25:13 11° NNW 03:28:03 17° NNE 03:31:20 10° NE visible
17 Nov 4.8 05:06:44 10° NNW 05:11:26 34° NE 05:16:07 10° ESE visible
18 Nov 6.1 01:05:20 13° NNE 01:05:20 13° NNE 01:06:20 10° NNE visible
18 Nov 5.6 02:45:21 14° N 02:46:46 15° N 02:49:46 10° NE visible
18 Nov 5.1 04:26:05 10° NNW 04:30:24 26° NE 04:34:43 10° E visible
19 Nov 6.4 00:25:28 10° NNE 00:25:28 10° NNE 00:25:34 10° NNE visible
19 Nov 5.7 02:05:29 15° N 02:05:29 15° N 02:08:22 10° NE visible
19 Nov 5.4 03:45:29 10° NNW 03:49:17 21° NNE 03:53:11 10° ENE visible
19 Nov 4.1 05:27:09 10° NNW 05:32:14 54° NE 05:37:18 10° SE visible
20 Nov 6.0 01:25:36 14° N 01:25:36 14° N 01:27:11 10° NNE visible
20 Nov 5.6 03:05:37 13° NNW 03:08:05 18° NNE 03:11:34 10° ENE visible
20 Nov 4.6 04:46:30 10° NNW 04:51:21 39° NE 04:56:11 10° ESE visible
21 Nov 6.3 00:45:44 11° NNE 00:45:44 11° NNE 00:46:12 10° NNE visible
21 Nov 5.6 02:25:45 15° N 02:26:50 16° NNE 02:29:57 10° NE visible
21 Nov 5.0 04:05:52 10° NNW 04:10:22 29° NE 04:14:52 10° E visible
22 Nov 5.8 01:45:54 15° N 01:45:54 15° N 01:48:28 10° NE visible
22 Nov 5.4 03:25:54 13° NNW 03:29:17 23° NNE 03:33:23 10° E visible
22 Nov 3.9 05:06:56 10° NNW 05:12:05 64° NE 05:17:13 10° SE visible
23 Nov 6.2 01:06:04 13° NNE 01:06:04 13° NNE 01:07:10 10° NNE visible
23 Nov 5.5 02:46:05 15° N 02:48:07 19° NNE 02:51:48 10° ENE visible
23 Nov 4.4 04:26:17 10° NNW 04:31:15 45° NE 04:36:13 10° ESE visible
